Flag for Cuba Weather past 2 weeks in Camagüey, Cuba

Now
75 °F

Passing clouds.


Feels Like: 75 °F
Forecast: 73 / 91 °F
Wind: 3 mph from Southeast

Location: Camaguey Aeropuerto

Current Time: Sep 3, 2015 at 3:02:00 AM

Latest Report: Sep 3, 2015 at 1:50 AM


Visibility: 6 mi

Pressure: 30.01 "Hg

Humidity: 89%

Dew point: 72 °F

Location of CamagüeyLocation

Historic Weather in Camagüey — Graph

°F

Camagüey temperature yesterday

Maximum temperature yesterday: 91 °F (at 12:51 PM)
Minimum temperature yesterday: 77 °F (at 12:50 AM)
Average temperature yesterday: 83 °F

Past Weeks' High & Low Weather Summary

 TemperatureHumidityPressure
High95 °F (Aug 20, 3:53 PM)94% (Aug 20, 4:52 AM)30.09 "Hg (Aug 20, 4:52 AM)
Low72 °F (Aug 30, 10:50 PM)32% (Aug 23, 2:50 PM)29.95 "Hg (Sep 2, 5:50 PM)
Average81 °F75%30.01 "Hg
* Reported Aug 19 1:50 AM — Sep 3 1:50 AM, Camagüey, Weather by CustomWeather, © 2015

Note: Actual official high and low records may vary slightly from our data, if they occured in-between our weather recording intervals... More about our weather records

Advertising

Camagüey weather history for previous 24 hours

 ConditionsComfort  
Time TempWeatherWind HumidityBarometerVisibility
1:50 AM
Thu, Sep 3
75 °FPassing clouds.3 mph89%30.01 "Hg6 mi
12:51 AM75 °FPassing clouds.7 mph94%30.01 "Hg6 mi
11:50 PM
Wed, Sep 2
77 °FPassing clouds.6 mph89%30.04 "Hg6 mi
10:50 PM77 °FPassing clouds.9 mph89%30.04 "Hg6 mi
9:50 PM79 °FPassing clouds.10 mph84%30.01 "Hg6 mi
7:50 PM82 °FPassing clouds.8 mph70%30.01 "Hg6 mi
6:50 PM86 °FPassing clouds.14 mph59%29.98 "Hg6 mi
5:50 PM88 °FPassing clouds.15 mph55%29.95 "Hg6 mi
4:50 PM90 °FPassing clouds.18 mph55%29.98 "Hg6 mi
3:50 PM91 °FScattered clouds.14 mph46%29.98 "Hg6 mi
2:50 PM90 °FPassing clouds.17 mph55%30.01 "Hg6 mi
1:50 PM91 °FPassing clouds.13 mph46%30.04 "Hg6 mi
12:51 PM91 °FScattered clouds.10 mph49%30.04 "Hg6 mi
11:50 AM88 °FPassing clouds.9 mph59%30.07 "Hg6 mi
10:50 AM88 °FPassing clouds.10 mph59%30.07 "Hg6 mi
9:50 AM84 °FPassing clouds.9 mph74%30.07 "Hg6 mi
8:50 AM81 °FScattered clouds.7 mph89%30.07 "Hg6 mi
7:50 AM79 °FPassing clouds.5 mph89%30.07 "Hg6 mi
6:50 AM77 °FFog.6 mph89%30.04 "Hg4 mi
5:50 AM77 °FPassing clouds.5 mph94%30.04 "Hg5 mi
4:50 AM77 °FClear.5 mph89%30.04 "Hg6 mi
3:51 AM77 °FClear.6 mph89%30.04 "Hg6 mi
Weather by CustomWeather, © 2015

See weather overviewHow to use our weather pages